Regional Weather Roundup
Issued by NWS State College, PA

Home | Current Version | Previous Version | Graphics & Text | Print | Product List | Glossary On
Versions: 1 2 3 4 5 6 7 8 9 10 11 12 13 14 15 16 17 18 19 20 21 22 23 24 25 26 27 28 29 30 31 32 33 34 35 36 37 38 39 40 41 42 43 44 45 46 47 48 49 50
000
ASUS41 KCTP 180603
RWRCTP

REGIONAL WEATHER ROUNDUP
NATIONAL WEATHER SERVICE STATE COLLEGE PA
200 AM EDT WED OCT 18 2017

Note: "fair" indicates few or no clouds below 12,000 feet with no
significant weather and/or obstructions to visibility.

* = STATION THAT DOES NOT REPORT PRECIPITATION /E.G. RAIN...SNOW...ETC/
    THUNDER OR FOG.

PAZ002>004-007>009-013>016-020>023-029>032-180700-
WESTERN PENNSYLVANIA

CITY           SKY/WX    TMP DP  RH WIND       PRES   REMARKS
ERIE           CLEAR     55  39  54 SW10      30.24S
MEADVILLE      CLEAR     49  39  68 SW6       30.28R
FRANKLIN*      CLEAR     46  38  73 S6        30.30R
NEW CASTLE     FAIR      47  40  76 CALM      30.30R
BEAVER COUNTY  NOT AVBL
BUTLER*        CLEAR     44  37  76 E3        30.31R
PITTSBURGH INT CLEAR     48  39  71 CALM      30.31R
PITTSBURGH     CLEAR     48  37  65 S9        30.30S
INDIANA*       CLEAR     43  41  93 CALM      30.34R
LATROBE        CLEAR     43  39  87 CALM      30.33R
WASHINGTON CO* CLEAR     40  38  93 SW3       30.34S
$$

PAZ004>006-010>012-017>019-024>028-033>037-041-042-045-046-049>053-180700-
CENTRAL PENNSYLVANIA

CITY           SKY/WX    TMP DP  RH WIND       PRES   REMARKS
BRADFORD       CLEAR     47  38  71 SW6       30.27S
DUBOIS         CLEAR     44  36  73 SW8       30.29S
CLEARFIELD     CLEAR     42  40  92 SW3       30.30S
JOHNSTOWN      CLEAR     45  36  70 SW8       30.30F
ALTOONA        CLEAR     46  38  73 SW5       30.31R
STATE COLLEGE  PTCLDY    47  38  72 W5        30.30S
WILLIAMSPORT   CLEAR     42  39  89 CALM      30.30R
SELINSGROVE    CLEAR     40  39  97 CALM      30.32R
FT INDIANTOWN  CLEAR     39  38  99 CALM      30.31S
CAPITAL CITY   CLEAR     43  37  79 SW3       30.31F
HARRISBURG     CLEAR     45  42  89 CALM      30.31S
YORK           CLEAR     38  38 100 SE3       30.32S
$$

PAZ038>040-043-044-047-048-054-055-060>062-067>071-180700-
EASTERN PENNSYLVANIA

CITY           SKY/WX    TMP DP  RH WIND       PRES   REMARKS
SCRANTON       CLEAR     40  37  89 CALM      30.28S
MOUNT POCONO   CLEAR     43  33  68 W12       30.27R
ALLENTOWN      CLEAR     40  36  86 NW3       30.30S
QUAKERTOWN*    CLEAR     37  37 100 CALM      30.31S
READING        CLEAR     43  42  97 CALM      30.30F
LANCASTER      CLEAR     42  40  92 CALM      30.32S
COATESVILLE    CLEAR     46  39  76 W3        30.33S
POTTSTOWN      CLEAR     40  39  97 CALM      30.33R
BLUE BELL      CLEAR     37  37 100 CALM      30.33S
DOYLESTOWN     CLEAR     44  37  76 S3        30.30S
WILLOW GROVE   NOT AVBL
NORTH PHILA    CLEAR     48  40  73 W3        30.33S
PHILADELPHIA   CLEAR     50  40  68 W3        30.33R
$$



USA.gov is the U.S. government's official web portal to all federal, state and local government web resources and services.